When you browse on this site, cookies collect data to enhance your experience and personalize the content and advertising you see.
Visit our Privacy Policy to learn more. By continuing to use the site, you agree to this use of cookies and data.
  • In Österreich
  • Länderverzeichnis
  • Für 7 Tage
  • Wassertemperatur
  • Satellitenkarten
  • Wetterkarte
  • News
  • Widgets
  • user-avatar
    Anmelden

    Stündliche Wetter Río Gallegos

    Heute, 26 März, Dienstag

    Zeit Temperatur Niederschläge Wind Luftdruck Luftfeuchtigkeit
    00:00 +9°C° 0 mm 3 m/S 765 mmHg 61%
    01:00 +8°C° 0 mm 3 m/S 765 mmHg 63%
    02:00 +7°C° 0 mm 4 m/S 764 mmHg 62%
    03:00 +7°C° 0 mm 4 m/S 764 mmHg 61%
    04:00 +7°C° 0 mm 4 m/S 764 mmHg 60%
    05:00 +8°C° 0 mm 5 m/S 763 mmHg 58%
    06:00 +8°C° 0 mm 5 m/S 763 mmHg 57%
    07:00 +9°C° 0 mm 6 m/S 762 mmHg 55%
    08:00 +10°C° 0 mm 6 m/S 762 mmHg 50%
    09:00 +12°C° 0 mm 7 m/S 762 mmHg 45%
    10:00 +13°C° 0 mm 8 m/S 762 mmHg 40%
    11:00 +15°C° 0 mm 8 m/S 761 mmHg 39%
    12:00 +17°C° 0 mm 8 m/S 761 mmHg 38%
    13:00 +18°C° 0 mm 8 m/S 761 mmHg 36%
    14:00 +18°C° 0 mm 7 m/S 760 mmHg 39%
    15:00 +19°C° 0 mm 5 m/S 760 mmHg 41%
    16:00 +19°C° 0 mm 4 m/S 759 mmHg 43%
    17:00 +18°C° 0 mm 3 m/S 759 mmHg 45%
    18:00 +17°C° 0 mm 3 m/S 759 mmHg 47%
    19:00 +16°C° 0 mm 2 m/S 759 mmHg 50%
    20:00 +15°C° 0 mm 2 m/S 758 mmHg 51%
    21:00 +14°C° 0 mm 2 m/S 758 mmHg 53%
    22:00 +14°C° 0 mm 2 m/S 758 mmHg 55%
    23:00 +13°C° 0 mm 2 m/S 757 mmHg 55%

    Morgen, 27 März, Mittwoch

    Zeit Temperatur Niederschläge Wind Luftdruck Luftfeuchtigkeit
    00:00 +12°C° 0 mm 3 m/S 757 mmHg 55%
    01:00 +12°C° 0 mm 3 m/S 757 mmHg 54%
    02:00 +11°C° 0 mm 3 m/S 757 mmHg 55%
    03:00 +11°C° 0 mm 3 m/S 757 mmHg 55%
    04:00 +11°C° 0 mm 3 m/S 756 mmHg 55%
    05:00 +10°C° 0 mm 3 m/S 756 mmHg 56%
    06:00 +10°C° 0 mm 3 m/S 756 mmHg 56%
    07:00 +10°C° 0 mm 4 m/S 756 mmHg 57%
    08:00 +12°C° 0 mm 5 m/S 757 mmHg 52%
    09:00 +13°C° 0 mm 6 m/S 757 mmHg 46%
    10:00 +14°C° 0 mm 7 m/S 757 mmHg 41%
    11:00 +15°C° 0 mm 7 m/S 757 mmHg 40%
    12:00 +16°C° 0 mm 7 m/S 757 mmHg 38%
    13:00 +17°C° 0 mm 7 m/S 756 mmHg 37%
    14:00 +16°C° 0.1 mm 7 m/S 757 mmHg 44%
    15:00 +15°C° 0.1 mm 7 m/S 757 mmHg 51%
    16:00 +14°C° 0.1 mm 7 m/S 757 mmHg 58%
    17:00 +14°C° 0.4 mm 6 m/S 758 mmHg 64%
    18:00 +13°C° 0.4 mm 6 m/S 758 mmHg 71%
    19:00 +12°C° 0.4 mm 5 m/S 759 mmHg 77%
    20:00 +12°C° 0 mm 4 m/S 759 mmHg 76%
    21:00 +12°C° 0 mm 4 m/S 760 mmHg 75%
    22:00 +12°C° 0 mm 3 m/S 760 mmHg 74%
    23:00 +12°C° 0 mm 3 m/S 760 mmHg 75%

    übermorgen, 28 März, Donnerstag

    Zeit Temperatur Niederschläge Wind Luftdruck Luftfeuchtigkeit
    00:00 +13°C° 0 mm 2 m/S 760 mmHg 75%
    01:00 +13°C° 0 mm 1 m/S 760 mmHg 76%
    02:00 +13°C° 0 mm 2 m/S 760 mmHg 76%
    03:00 +13°C° 0 mm 2 m/S 760 mmHg 75%
    04:00 +12°C° 0 mm 3 m/S 760 mmHg 75%
    05:00 +11°C° 0 mm 4 m/S 760 mmHg 71%
    06:00 +10°C° 0 mm 5 m/S 760 mmHg 67%
    07:00 +10°C° 0 mm 5 m/S 759 mmHg 63%
    08:00 +13°C° 0 mm 6 m/S 759 mmHg 60%
    09:00 +14°C° 0 mm 7 m/S 759 mmHg 57%
    10:00 +15°C° 0 mm 8 m/S 758 mmHg 54%
    11:00 +16°C° 0 mm 8 m/S 758 mmHg 54%
    12:00 +17°C° 0 mm 8 m/S 757 mmHg 54%
    13:00 +17°C° 0 mm 8 m/S 756 mmHg 53%
    14:00 +17°C° 0 mm 8 m/S 755 mmHg 56%
    15:00 +16°C° 0 mm 8 m/S 754 mmHg 59%
    16:00 +16°C° 0 mm 9 m/S 753 mmHg 61%
    17:00 +15°C° 0 mm 9 m/S 752 mmHg 65%
    18:00 +13°C° 0 mm 9 m/S 751 mmHg 68%
    19:00 +12°C° 0 mm 9 m/S 750 mmHg 72%
    20:00 +12°C° 0 mm 9 m/S 748 mmHg 71%
    21:00 +13°C° 0 mm 9 m/S 747 mmHg 71%
    22:00 +13°C° 0 mm 9 m/S 746 mmHg 70%
    23:00 +13°C° 0 mm 9 m/S 744 mmHg 66%

    29 März, Freitag

    Zeit Temperatur Niederschläge Wind Luftdruck Luftfeuchtigkeit
    00:00 +15°C° 0 mm 9 m/S 743 mmHg 62%
    01:00 +16°C° 0 mm 9 m/S 742 mmHg 57%
    02:00 +16°C° 0 mm 8 m/S 742 mmHg 58%
    03:00 +16°C° 0 mm 7 m/S 741 mmHg 58%
    04:00 +16°C° 0 mm 6 m/S 741 mmHg 59%
    05:00 +15°C° 0.1 mm 5 m/S 741 mmHg 62%
    06:00 +15°C° 0.1 mm 4 m/S 741 mmHg 66%
    07:00 +14°C° 0.1 mm 3 m/S 741 mmHg 69%
    08:00 +14°C° 0.6 mm 4 m/S 740 mmHg 71%
    09:00 +15°C° 0.6 mm 4 m/S 740 mmHg 72%
    10:00 +15°C° 0.6 mm 4 m/S 740 mmHg 74%
    11:00 +15°C° 0.8 mm 7 m/S 740 mmHg 65%
    12:00 +13°C° 0.8 mm 10 m/S 740 mmHg 55%
    13:00 +13°C° 0.8 mm 12 m/S 741 mmHg 46%
    14:00 +13°C° 0 mm 12 m/S 742 mmHg 50%
    15:00 +12°C° 0 mm 12 m/S 743 mmHg 53%
    16:00 +12°C° 0 mm 12 m/S 745 mmHg 57%
    17:00 +10°C° 0 mm 12 m/S 746 mmHg 57%
    18:00 +8°C° 0 mm 12 m/S 748 mmHg 57%
    19:00 +7°C° 0 mm 11 m/S 750 mmHg 56%
    20:00 +6°C° 0 mm 10 m/S 751 mmHg 58%
    21:00 +6°C° 0 mm 9 m/S 752 mmHg 59%
    22:00 +5°C° 0 mm 8 m/S 753 mmHg 60%
    23:00 +5°C° 0 mm 7 m/S 754 mmHg 62%

    30 März, Samstag

    Zeit Temperatur Niederschläge Wind Luftdruck Luftfeuchtigkeit
    00:00 +4°C° 0 mm 6 m/S 754 mmHg 64%
    01:00 +4°C° 0 mm 6 m/S 755 mmHg 67%
    02:00 +4°C° 0 mm 6 m/S 755 mmHg 67%
    03:00 +4°C° 0 mm 6 m/S 755 mmHg 68%
    04:00 +4°C° 0 mm 6 m/S 756 mmHg 69%
    05:00 +4°C° 0 mm 7 m/S 756 mmHg 67%
    06:00 +5°C° 0 mm 8 m/S 756 mmHg 64%
    07:00 +5°C° 0 mm 9 m/S 756 mmHg 62%
    08:00 +6°C° 0 mm 9 m/S 756 mmHg 58%
    09:00 +8°C° 0 mm 9 m/S 755 mmHg 54%
    10:00 +10°C° 0 mm 9 m/S 755 mmHg 50%
    11:00 +11°C° 0 mm 8 m/S 755 mmHg 48%
    12:00 +12°C° 0 mm 8 m/S 754 mmHg 46%
    13:00 +14°C° 0 mm 7 m/S 754 mmHg 44%
    14:00 +14°C° 0 mm 6 m/S 753 mmHg 44%
    15:00 +14°C° 0 mm 5 m/S 753 mmHg 45%
    16:00 +14°C° 0 mm 4 m/S 753 mmHg 45%
    17:00 +13°C° 0 mm 4 m/S 753 mmHg 49%
    18:00 +12°C° 0 mm 3 m/S 752 mmHg 54%
    19:00 +11°C° 0 mm 3 m/S 752 mmHg 58%
    20:00 +11°C° 0.3 mm 3 m/S 752 mmHg 63%
    21:00 +10°C° 0.3 mm 3 m/S 752 mmHg 67%
    22:00 +9°C° 0.3 mm 3 m/S 751 mmHg 71%
    23:00 +9°C° 0.8 mm 2 m/S 751 mmHg 75%

    31 März, Sonntag

    Zeit Temperatur Niederschläge Wind Luftdruck Luftfeuchtigkeit
    00:00 +9°C° 0.8 mm 2 m/S 751 mmHg 79%
    01:00 +9°C° 0.8 mm 1 m/S 751 mmHg 83%
    02:00 +8°C° 1 mm 2 m/S 751 mmHg 85%
    03:00 +7°C° 1 mm 4 m/S 750 mmHg 87%
    04:00 +7°C° 1 mm 5 m/S 750 mmHg 88%
    05:00 +8°C° 0.4 mm 6 m/S 750 mmHg 87%
    06:00 +8°C° 0.4 mm 6 m/S 750 mmHg 86%
    07:00 +8°C° 0.4 mm 7 m/S 750 mmHg 85%
    08:00 +10°C° 0 mm 7 m/S 750 mmHg 77%
    09:00 +12°C° 0 mm 7 m/S 750 mmHg 69%
    10:00 +14°C° 0 mm 7 m/S 750 mmHg 61%
    11:00 +15°C° 0 mm 8 m/S 750 mmHg 61%
    12:00 +15°C° 0 mm 8 m/S 750 mmHg 60%
    13:00 +16°C° 0 mm 9 m/S 750 mmHg 60%
    14:00 +15°C° 0 mm 8 m/S 750 mmHg 62%
    15:00 +15°C° 0 mm 7 m/S 751 mmHg 64%
    16:00 +15°C° 0 mm 6 m/S 751 mmHg 67%
    17:00 +14°C° 0 mm 5 m/S 752 mmHg 69%
    18:00 +13°C° 0 mm 4 m/S 753 mmHg 72%
    19:00 +13°C° 0 mm 2 m/S 753 mmHg 75%
    20:00 +12°C° 0 mm 2 m/S 753 mmHg 76%
    21:00 +12°C° 0 mm 2 m/S 753 mmHg 76%
    22:00 +10°C° 0 mm 2 m/S 753 mmHg 76%
    23:00 +10°C° 0 mm 2 m/S 753 mmHg 76%
    Mehr zeigen